Pontiac, MI

12:04 PM EDT on April 21, 2018 (GMT -0400)
Oakland County International

Weather History for KPTK - January, 2013

Change the Weather History Date:

Friday, January 4, 2013

  Actual Average Record
Temperature  
Mean Temperature 27 °F -  
Max Temperature 30 °F 30 °F 60 °F (1997)
Min Temperature 23 °F 18 °F -2 °F (2018)
Degree Days  
Heating Degree Days 38    
Moisture  
Dew Point 19 °F    
Average Humidity 73    
Maximum Humidity 81    
Minimum Humidity 61    
Precipitation  
Precipitation 0.00 in - - ()
Snow  
Snow 0.00 in - - ()
Snow Depth 5.00 in    
Sea Level Pressure  
Sea Level Pressure 30.08 in    
Wind  
Wind Speed 13 mph (WSW)    
Max Wind Speed 20 mph    
Max Gust Speed 30 mph    
Visibility 10 miles    
Events      
Averages and records for this station are not official NWS values.
T = Trace of Precipitation, MM = Missing Value Source: NWS Daily Summary

Daily Weather History Graph

Daily Weather History Graph

Search for Another Location

Airport or City:

Astronomy

Jan. 04, 2013 Rise Set
Actual Time 8:04 AM EST 5:13 PM EST
Civil Twilight 7:32 AM EST 5:45 PM EST
Nautical Twilight 6:56 AM EST 6:21 PM EST
Astronomical Twilight 6:22 AM EST 6:55 PM EST
Moon No Moon Rise 11:35 AM EST (1/4)
Length of Visible Light 10h 13m
Length of Day
9h 09m
Waning Gibbous, 55% of the Moon is Illuminated
Jan 4
Waning Gibbous
Jan 4
Last Quarter
Jan 11
New
Jan 18
First Quarter
Jan 26
Full

Hourly Weather History & Observations

Time (EST) Temp. Windchill Dew Point Humidity Pressure Visibility Wind Dir Wind Speed Gust Speed Precip Events Conditions
12:05 AM 26.6 °F 16.8 °F 19.4 °F 74% 30.09 in 10.0 mi WSW 10.4 mph - N/A   Mostly Cloudy
12:23 AM 26.6 °F 17.5 °F 21.2 °F 80% 30.09 in 10.0 mi WSW 9.2 mph - N/A   Overcast
12:32 AM 26.6 °F 16.2 °F 21.2 °F 80% 30.09 in 9.0 mi WSW 11.5 mph - N/A   Overcast
12:53 AM 27.0 °F 16.7 °F 21.0 °F 78% 30.12 in 9.0 mi WSW 11.5 mph - N/A   Overcast
1:53 AM 27.0 °F 15.2 °F 21.9 °F 81% 30.10 in 9.0 mi WSW 15.0 mph - N/A   Overcast
2:53 AM 28.0 °F 16.5 °F 21.0 °F 75% 30.10 in 10.0 mi WSW 15.0 mph 21.9 mph N/A   Overcast
3:53 AM 28.0 °F 14.9 °F 21.0 °F 75% 30.08 in 10.0 mi WSW 19.6 mph 24.2 mph N/A   Overcast
4:53 AM 27.0 °F 16.7 °F 21.0 °F 78% 30.07 in 10.0 mi WSW 11.5 mph - N/A   Overcast
5:53 AM 27.0 °F 14.3 °F 19.0 °F 72% 30.06 in 10.0 mi WSW 17.3 mph 24.2 mph N/A   Mostly Cloudy
6:53 AM 27.0 °F 15.2 °F 19.0 °F 72% 30.06 in 10.0 mi WSW 15.0 mph 26.5 mph N/A   Mostly Cloudy
7:53 AM 25.0 °F 11.7 °F 18.0 °F 75% 30.06 in 10.0 mi WSW 17.3 mph 27.6 mph N/A   Scattered Clouds
8:53 AM 24.1 °F 11.5 °F 18.0 °F 77% 30.06 in 10.0 mi WSW 15.0 mph 21.9 mph N/A   Scattered Clouds
9:53 AM 24.1 °F 11.5 °F 17.1 °F 75% 30.07 in 10.0 mi WSW 15.0 mph 25.3 mph N/A   Scattered Clouds
10:04 AM 24.8 °F 11.5 °F 17.6 °F 74% 30.04 in 10.0 mi WSW 17.3 mph 25.3 mph N/A   Mostly Cloudy
10:53 AM 25.0 °F 10.9 °F 18.0 °F 75% 30.07 in 10.0 mi WSW 19.6 mph 26.5 mph N/A   Mostly Cloudy
11:53 AM 26.1 °F 14.0 °F 18.0 °F 71% 30.06 in 10.0 mi WSW 15.0 mph 27.6 mph N/A   Scattered Clouds
12:53 PM 27.0 °F 13.9 °F 18.0 °F 69% 30.02 in 10.0 mi SW 18.4 mph 24.2 mph N/A   Clear
1:53 PM 28.9 °F 18.2 °F 18.0 °F 64% 29.99 in 10.0 mi WSW 13.8 mph 25.3 mph N/A   Clear
2:53 PM 30.0 °F 18.7 °F 19.0 °F 64% 30.00 in 10.0 mi West 16.1 mph 24.2 mph N/A   Clear
3:53 PM 30.0 °F 17.9 °F 18.0 °F 61% 30.01 in 10.0 mi WSW 18.4 mph 29.9 mph N/A   Clear
4:53 PM 28.0 °F 15.7 °F 18.0 °F 66% 30.03 in 10.0 mi WSW 17.3 mph 24.2 mph N/A   Partly Cloudy
5:53 PM 27.0 °F 16.1 °F 17.1 °F 66% 30.06 in 10.0 mi WSW 12.7 mph 21.9 mph N/A   Partly Cloudy
6:53 PM 26.1 °F 15.0 °F 17.1 °F 69% 30.09 in 10.0 mi WSW 12.7 mph 21.9 mph N/A   Partly Cloudy
7:53 PM 25.0 °F 14.2 °F 17.1 °F 72% 30.11 in 10.0 mi WSW 11.5 mph - N/A   Partly Cloudy
8:53 PM 25.0 °F 13.6 °F 18.0 °F 75% 30.12 in 10.0 mi WSW 12.7 mph - N/A   Scattered Clouds
9:53 PM 25.0 °F 15.5 °F 18.0 °F 75% 30.14 in 10.0 mi West 9.2 mph - N/A   Scattered Clouds
10:53 PM 24.1 °F 14.4 °F 18.0 °F 77% 30.16 in 10.0 mi West 9.2 mph - N/A   Scattered Clouds
11:53 PM 23.0 °F 13.9 °F 18.0 °F 81% 30.18 in 9.0 mi West 8.1 mph - N/A   Partly Cloudy